| time (UTC) | temp F | wind direction | speed MPH | gust MPH | rain 1hr in | rain 24hr in | rain mn in | humidity % | barometer mb |
| 20260508080845 | 55 | 108 | 0.0 | 3.0 | 0.00 | 0.20 | 0.00 | 80 | 1014.5 |
| 20260508080344 | 55 | 111 | 0.0 | 1.0 | 0.00 | 0.20 | 0.00 | 81 | 1014.4 |
| 20260508075843 | 54 | 101 | 1.0 | 2.0 | 0.00 | 0.20 | 0.00 | 80 | 1014.4 |
| 20260508074845 | 53 | 115 | 0.0 | 1.0 | 0.00 | 0.20 | 0.00 | 83 | 1014.4 |
| 20260508074343 | 53 | 125 | 0.0 | 5.0 | 0.00 | 0.20 | 0.00 | 83 | 1014.3 |
| 20260508073845 | 53 | 102 | 0.0 | 2.0 | 0.00 | 0.20 | 0.00 | 83 | 1014.3 |
| 20260508073343 | 53 | 105 | 1.0 | 2.0 | 0.00 | 0.20 | 0.00 | 83 | 1014.2 |
| 20260508072845 | 53 | 109 | 0.0 | 1.0 | 0.00 | 0.20 | 0.00 | 84 | 1014.2 |
| 20260508072344 | 52 | 122 | 0.0 | 1.0 | 0.00 | 0.20 | 0.00 | 86 | 1014.2 |
| 20260508071345 | 50 | 103 | 0.0 | 1.0 | 0.00 | 0.20 | 0.00 | 87 | 1014.2 |
| 20260508070844 | 50 | 117 | 0.0 | 0.0 | 0.00 | 0.20 | 0.00 | 86 | 1014.2 |
| 20260508070344 | 50 | 117 | 0.0 | 1.0 | 0.00 | 0.20 | 0.00 | 87 | 1014.2 |
| 20260508065845 | 50 | 100 | 0.0 | 1.0 | 0.00 | 0.20 | 0.00 | 87 | 1014.2 |
| 20260508065344 | 50 | 108 | 0.0 | 0.0 | 0.00 | 0.20 | 0.00 | 89 | 1014.2 |
| 20260508064345 | 48 | 102 | 0.0 | 1.0 | 0.00 | 0.20 | 0.00 | 92 | 1014.2 |
| 20260508063344 | 46 | 143 | 0.0 | 0.0 | 0.00 | 0.20 | 0.00 | 93 | 1014.2 |
| 20260508061844 | 43 | 338 | 0.0 | 0.0 | 0.00 | 0.20 | 0.00 | 93 | 1014.0 |
| 20260508060845 | 42 | 338 | 0.0 | 0.0 | 0.00 | 0.20 | 0.00 | 94 | 1013.9 |
| 20260508060344 | 42 | 338 | 0.0 | 0.0 | 0.00 | 0.20 | 0.00 | 93 | 1013.9 |
| 20260508055844 | 41 | 338 | 0.0 | 1.0 | 0.00 | 0.20 | 0.00 | 93 | 1013.8 |
| 20260508055344 | 41 | 338 | 0.0 | 1.0 | 0.00 | 0.20 | 0.00 | 93 | 1013.8 |
| 20260508054845 | 41 | 107 | 0.0 | 1.0 | 0.00 | 0.20 | 0.00 | 94 | 1013.8 |
| 20260508053844 | 40 | 107 | 0.0 | 1.0 | 0.00 | 0.20 | 0.00 | 94 | 1013.8 |
| 20260508053344 | 40 | 142 | 0.0 | 1.0 | 0.00 | 0.20 | 0.00 | 93 | 1013.8 |
| 20260508052844 | 40 | 284 | 0.0 | 1.0 | 0.00 | 0.20 | 0.00 | 93 | 1013.6 |
| 20260508052345 | 40 | 285 | 0.0 | 1.0 | 0.00 | 0.20 | 0.00 | 93 | 1013.6 |
| 20260508051344 | 40 | 280 | 0.0 | 1.0 | 0.00 | 0.20 | 0.00 | 93 | 1013.5 |
| 20260508050844 | 41 | 269 | 0.0 | 1.0 | 0.00 | 0.20 | 0.00 | 93 | 1013.5 |
| 20260508050345 | 41 | 269 | 0.0 | 1.0 | 0.00 | 0.20 | 0.00 | 93 | 1013.4 |
| 20260508045846 | 41 | 269 | 0.0 | 0.0 | 0.00 | 0.20 | 0.00 | 93 | 1013.4 |
| 20260508045345 | 41 | 269 | 0.0 | 1.0 | 0.00 | 0.20 | 0.00 | 93 | 1013.4 |
| 20260508044344 | 41 | 259 | 0.0 | 1.0 | 0.00 | 0.20 | 0.00 | 93 | 1013.5 |
| 20260508043845 | 40 | 259 | 0.0 | 0.0 | 0.00 | 0.20 | 0.00 | 93 | 1013.6 |
| 20260508043347 | 40 | 259 | 0.0 | 0.0 | 0.00 | 0.20 | 0.00 | 92 | 1013.6 |
| 20260508042845 | 40 | 259 | 0.0 | 0.0 | 0.00 | 0.20 | 0.00 | 92 | 1013.6 |
| 20260508042346 | 41 | 259 | 0.0 | 0.0 | 0.00 | 0.20 | 0.00 | 93 | 1013.6 |
| 20260508041846 | 41 | 259 | 0.0 | 0.0 | 0.00 | 0.20 | 0.00 | 93 | 1013.6 |
| 20260508040845 | 40 | 259 | 0.0 | 0.0 | 0.00 | 0.20 | 0.00 | 92 | 1013.6 |
| 20260508040345 | 41 | 259 | 0.0 | 0.0 | 0.00 | 0.20 | 0.00 | 92 | 1013.6 |
| 20260508035845 | 41 | 259 | 0.0 | 0.0 | 0.00 | 0.20 | 0.00 | 93 | 1013.6 |
| 20260508034846 | 41 | 259 | 0.0 | 0.0 | 0.00 | 0.20 | 0.00 | 93 | 1013.5 |
| 20260508033846 | 41 | 259 | 0.0 | 0.0 | 0.00 | 0.20 | 0.00 | 93 | 1013.4 |
| 20260508033345 | 40 | 259 | 0.0 | 0.0 | 0.00 | 0.20 | 0.00 | 93 | 1013.4 |
| 20260508032845 | 40 | 259 | 0.0 | 0.0 | 0.00 | 0.20 | 0.00 | 92 | 1013.4 |
| 20260508032345 | 40 | 259 | 0.0 | 0.0 | 0.00 | 0.20 | 0.00 | 92 | 1013.4 |
| 20260508031846 | 40 | 259 | 0.0 | 0.0 | 0.00 | 0.20 | 0.00 | 92 | 1013.4 |
| 20260508031345 | 41 | 259 | 0.0 | 0.0 | 0.00 | 0.20 | 0.00 | 92 | 1013.4 |
| 20260508030847 | 41 | 266 | 0.0 | 0.0 | 0.00 | 0.20 | 0.00 | 92 | 1013.4 |
| 20260508030345 | 41 | 266 | 0.0 | 0.0 | 0.00 | 0.20 | 0.00 | 92 | 1013.4 |
| 20260508025846 | 42 | 266 | 0.0 | 0.0 | 0.00 | 0.20 | 0.00 | 93 | 1013.4 |
| 20260508025347 | 41 | 266 | 0.0 | 1.0 | 0.00 | 0.20 | 0.00 | 93 | 1013.4 |
| 20260508024845 | 41 | 266 | 0.0 | 0.0 | 0.00 | 0.20 | 0.00 | 92 | 1013.4 |
| 20260508024346 | 41 | 266 | 0.0 | 0.0 | 0.00 | 0.20 | 0.00 | 92 | 1013.4 |
| 20260508023847 | 41 | 266 | 0.0 | 0.0 | 0.00 | 0.20 | 0.00 | 92 | 1013.4 |
| 20260508023346 | 41 | 266 | 0.0 | 0.0 | 0.00 | 0.20 | 0.00 | 93 | 1013.3 |
| 20260508022846 | 41 | 266 | 0.0 | 0.0 | 0.00 | 0.20 | 0.00 | 93 | 1013.3 |
| 20260508021846 | 41 | 266 | 0.0 | 0.0 | 0.00 | 0.20 | 0.00 | 92 | 1013.2 |
| 20260508021346 | 41 | 266 | 0.0 | 0.0 | 0.00 | 0.20 | 0.00 | 91 | 1013.2 |
| 20260508020847 | 41 | 266 | 0.0 | 0.0 | 0.00 | 0.20 | 0.00 | 92 | 1013.2 |
| 20260508020345 | 41 | 266 | 0.0 | 0.0 | 0.00 | 0.20 | 0.00 | 91 | 1013.3 |
| 20260508015846 | 42 | 266 | 0.0 | 0.0 | 0.00 | 0.20 | 0.00 | 92 | 1013.3 |
| 20260508015346 | 42 | 266 | 0.0 | 0.0 | 0.00 | 0.20 | 0.00 | 93 | 1013.2 |
| 20260508014846 | 42 | 266 | 0.0 | 0.0 | 0.00 | 0.20 | 0.00 | 92 | 1013.3 |
| 20260508014347 | 42 | 266 | 0.0 | 0.0 | 0.00 | 0.20 | 0.00 | 91 | 1013.2 |
| 20260508013846 | 42 | 266 | 0.0 | 0.0 | 0.00 | 0.20 | 0.00 | 91 | 1013.2 |
| 20260508013347 | 43 | 266 | 0.0 | 0.0 | 0.00 | 0.20 | 0.00 | 92 | 1013.1 |
| 20260508012847 | 43 | 266 | 0.0 | 0.0 | 0.00 | 0.20 | 0.00 | 92 | 1013.2 |
| 20260508012346 | 43 | 266 | 0.0 | 0.0 | 0.00 | 0.20 | 0.00 | 92 | 1013.2 |
| 20260508011848 | 43 | 266 | 0.0 | 0.0 | 0.00 | 0.20 | 0.00 | 92 | 1013.2 |
| 20260508011348 | 43 | 266 | 0.0 | 0.0 | 0.00 | 0.20 | 0.00 | 93 | 1013.2 |
| 20260508010847 | 43 | 266 | 0.0 | 0.0 | 0.00 | 0.20 | 0.00 | 93 | 1013.2 |
| 20260508010347 | 42 | 266 | 0.0 | 0.0 | 0.00 | 0.20 | 0.00 | 92 | 1013.3 |
| 20260508005848 | 42 | 266 | 0.0 | 0.0 | 0.00 | 0.20 | 0.00 | 92 | 1013.3 |
| 20260508005347 | 42 | 266 | 0.0 | 0.0 | 0.00 | 0.20 | 0.00 | 91 | 1013.3 |
| 20260508004848 | 42 | 266 | 0.0 | 0.0 | 0.00 | 0.20 | 0.00 | 91 | 1013.4 |
| 20260508003847 | 43 | 266 | 0.0 | 0.0 | 0.00 | 0.20 | 0.00 | 91 | 1013.4 |
| 20260508002849 | 43 | 266 | 0.0 | 0.0 | 0.00 | 0.20 | 0.00 | 91 | 1013.4 |
| 20260508002347 | 43 | 266 | 0.0 | 0.0 | 0.00 | 0.20 | 0.00 | 91 | 1013.5 |
| 20260508001847 | 43 | 266 | 0.0 | 0.0 | 0.00 | 0.20 | 0.00 | 91 | 1013.5 |
| 20260508001347 | 43 | 266 | 0.0 | 0.0 | 0.00 | 0.20 | 0.00 | 90 | 1013.6 |
| 20260508000847 | 43 | 266 | 0.0 | 0.0 | 0.00 | 0.20 | 0.00 | 90 | 1013.6 |
| 20260508000349 | 43 | 266 | 0.0 | 0.0 | 0.00 | 0.20 | 0.00 | 90 | 1013.5 |
| 20260507234349 | 44 | 266 | 0.0 | 1.0 | 0.00 | 0.20 | 0.00 | 90 | 1013.6 |
| 20260507233848 | 44 | 266 | 0.0 | 0.0 | 0.00 | 0.20 | 0.00 | 90 | 1013.5 |
| 20260507233348 | 44 | 266 | 0.0 | 0.0 | 0.00 | 0.20 | 0.00 | 90 | 1013.5 |
| 20260507232847 | 44 | 266 | 0.0 | 0.0 | 0.00 | 0.20 | 0.00 | 90 | 1013.5 |
| 20260507232348 | 45 | 266 | 0.0 | 0.0 | 0.00 | 0.20 | 0.00 | 90 | 1013.6 |
| 20260507231850 | 45 | 266 | 0.0 | 0.0 | 0.00 | 0.20 | 0.00 | 90 | 1013.6 |
| 20260507231347 | 45 | 266 | 0.0 | 0.0 | 0.00 | 0.20 | 0.00 | 90 | 1013.6 |
| 20260507230905 | 45 | 266 | 0.0 | 0.0 | 0.00 | 0.20 | 0.00 | 89 | 1013.6 |
| 20260507225847 | 45 | 266 | 0.0 | 0.0 | 0.00 | 0.20 | 0.02 | 89 | 1013.6 |
| 20260507224848 | 45 | 266 | 0.0 | 0.0 | 0.00 | 0.20 | 0.02 | 89 | 1013.5 |
| 20260507224349 | 45 | 266 | 0.0 | 0.0 | 0.00 | 0.20 | 0.02 | 89 | 1013.4 |
| 20260507223847 | 46 | 266 | 0.0 | 0.0 | 0.00 | 0.20 | 0.02 | 88 | 1013.4 |
| 20260507223347 | 46 | 266 | 0.0 | 0.0 | 0.00 | 0.20 | 0.02 | 88 | 1013.5 |
| 20260507222848 | 46 | 266 | 0.0 | 0.0 | 0.00 | 0.20 | 0.02 | 88 | 1013.5 |
| 20260507222348 | 46 | 266 | 0.0 | 0.0 | 0.00 | 0.20 | 0.02 | 88 | 1013.4 |
| 20260507221849 | 46 | 266 | 0.0 | 0.0 | 0.00 | 0.20 | 0.02 | 87 | 1013.4 |
| 20260507221350 | 46 | 266 | 0.0 | 0.0 | 0.00 | 0.20 | 0.02 | 86 | 1013.4 |
| 20260507220849 | 47 | 266 | 0.0 | 0.0 | 0.00 | 0.20 | 0.02 | 86 | 1013.4 |
| 20260507220348 | 47 | 266 | 0.0 | 0.0 | 0.00 | 0.20 | 0.02 | 87 | 1013.4 |
| 20260507215848 | 47 | 266 | 0.0 | 0.0 | 0.00 | 0.20 | 0.02 | 87 | 1013.3 |
| 20260507215348 | 47 | 267 | 0.0 | 1.0 | 0.00 | 0.20 | 0.02 | 87 | 1013.3 |
| 20260507214849 | 47 | 266 | 0.0 | 1.0 | 0.00 | 0.20 | 0.02 | 87 | 1013.3 |
| 20260507214248 | 47 | 201 | 0.0 | 0.0 | 0.00 | 0.20 | 0.02 | 87 | 1013.3 |
| 20260507213749 | 47 | 197 | 0.0 | 0.0 | 0.00 | 0.20 | 0.02 | 86 | 1013.3 |
| 20260507213248 | 47 | 197 | 0.0 | 0.0 | 0.00 | 0.20 | 0.02 | 86 | 1013.3 |
| 20260507211749 | 47 | 197 | 0.0 | 0.0 | 0.00 | 0.20 | 0.02 | 85 | 1013.3 |
| 20260507211248 | 48 | 197 | 0.0 | 0.0 | 0.00 | 0.20 | 0.02 | 84 | 1013.2 |
| 20260507210750 | 48 | 197 | 0.0 | 1.0 | 0.00 | 0.20 | 0.02 | 84 | 1013.2 |
| 20260507210248 | 48 | 235 | 0.0 | 0.0 | 0.00 | 0.20 | 0.02 | 84 | 1013.1 |
| 20260507205750 | 48 | 233 | 0.0 | 0.0 | 0.00 | 0.20 | 0.02 | 84 | 1013.0 |
| 20260507205248 | 49 | 234 | 0.0 | 0.0 | 0.00 | 0.20 | 0.02 | 84 | 1013.0 |
| 20260507204248 | 49 | 234 | 0.0 | 0.0 | 0.00 | 0.20 | 0.02 | 83 | 1012.9 |
| 20260507203748 | 50 | 234 | 0.0 | 1.0 | 0.00 | 0.20 | 0.02 | 82 | 1012.9 |
| 20260507203249 | 50 | 234 | 0.0 | 0.0 | 0.00 | 0.20 | 0.02 | 82 | 1012.9 |
| 20260507202249 | 50 | 229 | 0.0 | 1.0 | 0.00 | 0.20 | 0.02 | 82 | 1012.7 |
| 20260507201748 | 50 | 214 | 0.0 | 1.0 | 0.00 | 0.20 | 0.02 | 81 | 1012.6 |
| 20260507201248 | 51 | 201 | 0.0 | 1.0 | 0.00 | 0.20 | 0.02 | 81 | 1012.6 |
| 20260507200249 | 51 | 204 | 0.0 | 1.0 | 0.00 | 0.20 | 0.02 | 80 | 1012.6 |
| 20260507195748 | 52 | 230 | 0.0 | 1.0 | 0.00 | 0.20 | 0.02 | 79 | 1012.6 |
| 20260507195249 | 52 | 200 | 0.0 | 2.0 | 0.00 | 0.20 | 0.02 | 79 | 1012.5 |
| 20260507194248 | 52 | 77 | 0.0 | 1.0 | 0.00 | 0.20 | 0.02 | 78 | 1012.5 |
| 20260507193249 | 53 | 179 | 0.0 | 1.0 | 0.00 | 0.20 | 0.02 | 78 | 1012.5 |
| 20260507192750 | 53 | 102 | 0.0 | 2.0 | 0.00 | 0.20 | 0.02 | 78 | 1012.5 |
| 20260507192249 | 53 | 317 | 0.0 | 2.0 | 0.00 | 0.20 | 0.02 | 78 | 1012.5 |
| 20260507191251 | 53 | 297 | 1.0 | 5.0 | 0.00 | 0.20 | 0.02 | 78 | 1012.4 |
| 20260507190816 | 54 | 316 | 1.0 | 2.0 | 0.00 | 0.20 | 0.02 | 77 | 1012.3 |
| 20260507190252 | 54 | 307 | 1.0 | 5.0 | 0.00 | 0.20 | 0.02 | 77 | 1012.4 |
| 20260507185751 | 54 | 324 | 0.0 | 3.0 | 0.00 | 0.20 | 0.02 | 77 | 1012.3 |
| 20260507185249 | 54 | 329 | 1.0 | 6.0 | 0.00 | 0.20 | 0.02 | 76 | 1012.3 |
| 20260507184750 | 54 | 317 | 1.0 | 3.0 | 0.00 | 0.20 | 0.02 | 76 | 1012.3 |
| 20260507184249 | 54 | 319 | 1.0 | 5.0 | 0.00 | 0.20 | 0.02 | 76 | 1012.4 |
| 20260507183749 | 55 | 358 | 1.0 | 5.0 | 0.00 | 0.20 | 0.02 | 76 | 1012.4 |
| 20260507183250 | 55 | 298 | 0.0 | 2.0 | 0.00 | 0.20 | 0.02 | 76 | 1012.4 |
| 20260507182250 | 55 | 357 | 0.0 | 3.0 | 0.00 | 0.20 | 0.02 | 76 | 1012.3 |
| 20260507181750 | 55 | 302 | 1.0 | 5.0 | 0.00 | 0.20 | 0.02 | 76 | 1012.2 |
| 20260507181249 | 55 | 287 | 1.0 | 6.0 | 0.00 | 0.20 | 0.02 | 76 | 1012.2 |
| 20260507180751 | 55 | 153 | 1.0 | 6.0 | 0.00 | 0.20 | 0.02 | 75 | 1012.2 |
| 20260507180249 | 55 | 327 | 2.0 | 6.0 | 0.00 | 0.20 | 0.02 | 76 | 1012.2 |
| 20260507175249 | 55 | 321 | 3.0 | 8.0 | 0.00 | 0.20 | 0.02 | 76 | 1012.2 |
| 20260507174751 | 55 | 332 | 4.0 | 8.0 | 0.00 | 0.20 | 0.02 | 75 | 1012.2 |
| 20260507174250 | 55 | 323 | 4.0 | 7.0 | 0.00 | 0.20 | 0.02 | 75 | 1012.2 |
| 20260507173750 | 55 | 324 | 5.0 | 9.0 | 0.00 | 0.20 | 0.02 | 73 | 1012.2 |
| 20260507173250 | 56 | 311 | 3.0 | 9.0 | 0.00 | 0.20 | 0.02 | 75 | 1012.2 |
| 20260507172749 | 56 | 315 | 4.0 | 8.0 | 0.00 | 0.20 | 0.02 | 74 | 1012.2 |
| 20260507172250 | 56 | 312 | 3.0 | 9.0 | 0.00 | 0.20 | 0.02 | 73 | 1012.2 |
| 20260507171750 | 56 | 329 | 4.0 | 9.0 | 0.00 | 0.20 | 0.02 | 71 | 1012.1 |
| 20260507171251 | 57 | 293 | 3.0 | 7.0 | 0.00 | 0.20 | 0.02 | 71 | 1012.2 |
| 20260507170750 | 57 | 305 | 1.0 | 10.0 | 0.00 | 0.20 | 0.02 | 74 | 1012.3 |
| 20260507170252 | 57 | 312 | 5.0 | 9.0 | 0.00 | 0.20 | 0.02 | 72 | 1012.3 |
| 20260507165250 | 57 | 338 | 2.0 | 7.0 | 0.01 | 0.20 | 0.02 | 75 | 1012.3 |
| 20260507164751 | 57 | 317 | 2.0 | 8.0 | 0.01 | 0.20 | 0.02 | 73 | 1012.3 |
| 20260507164252 | 57 | 318 | 6.0 | 10.0 | 0.01 | 0.20 | 0.02 | 71 | 1012.3 |
| 20260507163751 | 58 | 297 | 3.0 | 8.0 | 0.00 | 0.20 | 0.03 | 72 | 1012.3 |
| 20260507162750 | 58 | 323 | 2.0 | 9.0 | 0.00 | 0.20 | 0.03 | 72 | 1012.4 |
| 20260507161750 | 59 | 322 | 3.0 | 10.0 | 0.00 | 0.19 | 0.02 | 69 | 1012.4 |
| 20260507161251 | 60 | 321 | 2.0 | 7.0 | 0.00 | 0.19 | 0.02 | 69 | 1012.4 |
| 20260507160751 | 59 | 2 | 2.0 | 8.0 | 0.00 | 0.19 | 0.02 | 68 | 1012.4 |
| 20260507160252 | 59 | 316 | 2.0 | 6.0 | 0.00 | 0.19 | 0.02 | 70 | 1012.4 |
| 20260507155250 | 58 | 288 | 5.0 | 9.0 | 0.01 | 0.19 | 0.03 | 69 | 1012.4 |
| 20260507154250 | 59 | 324 | 3.0 | 8.0 | 0.01 | 0.19 | 0.03 | 67 | 1012.3 |
| 20260507153752 | 59 | 319 | 2.0 | 8.0 | 0.01 | 0.19 | 0.03 | 70 | 1012.3 |
| 20260507153250 | 59 | 314 | 5.0 | 10.0 | 0.01 | 0.19 | 0.03 | 68 | 1012.2 |
| 20260507152752 | 59 | 290 | 2.0 | 12.0 | 0.01 | 0.19 | 0.03 | 70 | 1012.1 |
| 20260507152251 | 59 | 325 | 5.0 | 12.0 | 0.01 | 0.19 | 0.03 | 70 | 1012.1 |
| 20260507151751 | 59 | 321 | 2.0 | 10.0 | 0.00 | 0.18 | 0.02 | 71 | 1012.1 |
| 20260507151252 | 58 | 326 | 3.0 | 8.0 | 0.00 | 0.18 | 0.02 | 72 | 1012.2 |
| 20260507145751 | 58 | 315 | 3.0 | 7.0 | 0.00 | 0.18 | 0.02 | 72 | 1012.3 |
| 20260507145252 | 58 | 348 | 3.0 | 10.0 | 0.00 | 0.18 | 0.02 | 73 | 1012.3 |
| 20260507144751 | 59 | 311 | 6.0 | 13.0 | 0.00 | 0.18 | 0.02 | 71 | 1012.2 |
| 20260507144252 | 59 | 305 | 5.0 | 9.0 | 0.00 | 0.18 | 0.02 | 70 | 1012.3 |
| 20260507143751 | 59 | 320 | 2.0 | 7.0 | 0.00 | 0.18 | 0.02 | 70 | 1012.3 |
| 20260507142751 | 59 | 325 | 4.0 | 10.0 | 0.00 | 0.18 | 0.02 | 65 | 1012.4 |
| 20260507142251 | 59 | 317 | 3.0 | 8.0 | 0.00 | 0.18 | 0.02 | 65 | 1012.4 |
| 20260507141752 | 59 | 313 | 3.0 | 9.0 | 0.00 | 0.18 | 0.02 | 66 | 1012.4 |
| 20260507141251 | 60 | 346 | 3.0 | 7.0 | 0.00 | 0.18 | 0.02 | 65 | 1012.3 |
| 20260507140751 | 59 | 334 | 3.0 | 12.0 | 0.00 | 0.18 | 0.02 | 67 | 1012.3 |
| 20260507135752 | 59 | 284 | 2.0 | 8.0 | 0.00 | 0.18 | 0.02 | 68 | 1012.3 |
| 20260507135251 | 59 | 291 | 3.0 | 7.0 | 0.00 | 0.18 | 0.02 | 67 | 1012.4 |
| 20260507134752 | 60 | 332 | 2.0 | 6.0 | 0.00 | 0.18 | 0.02 | 67 | 1012.4 |
| 20260507134251 | 59 | 198 | 3.0 | 9.0 | 0.00 | 0.18 | 0.02 | 69 | 1012.3 |
| 20260507133752 | 59 | 320 | 2.0 | 6.0 | 0.03 | 0.18 | 0.02 | 68 | 1012.4 |
| 20260507133253 | 59 | 289 | 2.0 | 12.0 | 0.03 | 0.18 | 0.02 | 68 | 1012.3 |
| 20260507132251 | 60 | 309 | 2.0 | 9.0 | 0.04 | 0.18 | 0.02 | 69 | 1012.3 |
| 20260507131752 | 60 | 259 | 3.0 | 8.0 | 0.04 | 0.18 | 0.02 | 70 | 1012.3 |
| 20260507131252 | 60 | 342 | 3.0 | 9.0 | 0.04 | 0.18 | 0.02 | 69 | 1012.4 |
| 20260507130251 | 60 | 199 | 3.0 | 6.0 | 0.04 | 0.18 | 0.02 | 69 | 1012.4 |
| 20260507125752 | 60 | 332 | 2.0 | 6.0 | 0.04 | 0.18 | 0.02 | 68 | 1012.5 |
| 20260507125252 | 59 | 339 | 2.0 | 13.0 | 0.03 | 0.18 | 0.05 | 69 | 1012.5 |
| 20260507124751 | 60 | 322 | 2.0 | 6.0 | 0.03 | 0.18 | 0.05 | 69 | 1012.4 |
| 20260507124253 | 59 | 124 | 3.0 | 8.0 | 0.03 | 0.18 | 0.05 | 71 | 1012.5 |
| 20260507123752 | 59 | 198 | 3.0 | 9.0 | 0.03 | 0.18 | 0.05 | 71 | 1012.5 |
| 20260507123252 | 59 | 353 | 4.0 | 10.0 | 0.00 | 0.15 | 0.02 | 69 | 1012.5 |
| 20260507122753 | 59 | 281 | 3.0 | 12.0 | 0.00 | 0.15 | 0.02 | 70 | 1012.5 |
| 20260507121753 | 59 | 280 | 2.0 | 9.0 | 0.00 | 0.14 | 0.02 | 68 | 1012.6 |
| 20260507121254 | 58 | 152 | 2.0 | 8.0 | 0.00 | 0.14 | 0.02 | 67 | 1012.6 |
| 20260507120752 | 58 | 338 | 2.0 | 9.0 | 0.00 | 0.14 | 0.02 | 69 | 1012.6 |
| 20260507120253 | 59 | 338 | 2.0 | 7.0 | 0.00 | 0.14 | 0.02 | 70 | 1012.6 |
| 20260507115752 | 58 | 213 | 1.0 | 7.0 | 0.00 | 0.14 | 0.02 | 72 | 1012.6 |
| 20260507115252 | 58 | 319 | 2.0 | 7.0 | 0.00 | 0.14 | 0.02 | 72 | 1012.6 |
| 20260507114753 | 57 | 347 | 2.0 | 7.0 | 0.00 | 0.14 | 0.02 | 72 | 1012.6 |
| 20260507114252 | 58 | 338 | 1.0 | 6.0 | 0.00 | 0.14 | 0.02 | 72 | 1012.6 |
| 20260507113753 | 58 | 327 | 1.0 | 6.0 | 0.02 | 0.14 | 0.02 | 73 | 1012.5 |
| 20260507113253 | 58 | 355 | 2.0 | 10.0 | 0.00 | 0.14 | 0.02 | 72 | 1012.6 |
| 20260507112752 | 58 | 192 | 1.0 | 9.0 | 0.00 | 0.14 | 0.02 | 73 | 1012.6 |
| 20260507112253 | 57 | 14 | 3.0 | 7.0 | 0.00 | 0.14 | 0.02 | 72 | 1012.6 |
| 20260507111752 | 57 | 298 | 3.0 | 9.0 | 0.00 | 0.14 | 0.02 | 73 | 1012.6 |
| 20260507111253 | 57 | 120 | 2.0 | 6.0 | 0.00 | 0.14 | 0.02 | 71 | 1012.5 |
| 20260507110753 | 56 | 81 | 2.0 | 7.0 | 0.02 | 0.14 | 0.02 | 72 | 1012.5 |
| 20260507110253 | 56 | 307 | 3.0 | 8.0 | 0.11 | 0.14 | 0.04 | 73 | 1012.6 |
| 20260507105752 | 56 | 170 | 1.0 | 6.0 | 0.02 | 0.14 | 0.04 | 74 | 1012.6 |
| 20260507105253 | 56 | 310 | 2.0 | 6.0 | 0.03 | 0.14 | 0.04 | 76 | 1012.6 |
| 20260507104752 | 56 | 150 | 1.0 | 3.0 | 0.03 | 0.14 | 0.04 | 76 | 1012.6 |
| 20260507104254 | 56 | 144 | 1.0 | 6.0 | 0.03 | 0.14 | 0.04 | 76 | 1012.6 |
| 20260507103754 | 55 | 330 | 2.0 | 7.0 | 0.03 | 0.14 | 0.04 | 76 | 1012.6 |
| 20260507102754 | 56 | 305 | 2.0 | 8.0 | 0.01 | 0.12 | 0.02 | 78 | 1012.6 |
| 20260507102254 | 55 | 291 | 2.0 | 5.0 | 0.01 | 0.12 | 0.02 | 78 | 1012.6 |
| 20260507101753 | 55 | 232 | 0.0 | 3.0 | 0.01 | 0.12 | 0.02 | 81 | 1012.6 |
| 20260507101253 | 55 | 259 | 1.0 | 5.0 | 0.02 | 0.12 | 0.02 | 81 | 1012.6 |
| 20260507100754 | 54 | 179 | 1.0 | 5.0 | 0.11 | 0.12 | 0.12 | 85 | 1012.6 |
| 20260507100254 | 54 | 231 | 2.0 | 5.0 | 0.06 | 0.07 | 0.07 | 87 | 1012.6 |
| 20260507095755 | 53 | 165 | 0.0 | 3.0 | 0.02 | 0.03 | 0.03 | 88 | 1012.6 |
| 20260507095255 | 53 | 328 | 0.0 | 5.0 | 0.01 | 0.02 | 0.02 | 88 | 1012.6 |
| 20260507094753 | 53 | 203 | 1.0 | 5.0 | 0.01 | 0.02 | 0.02 | 87 | 1012.6 |
| 20260507094254 | 53 | 180 | 3.0 | 6.0 | 0.01 | 0.02 | 0.02 | 86 | 1012.6 |
| 20260507093754 | 53 | 146 | 1.0 | 3.0 | 0.01 | 0.02 | 0.02 | 85 | 1012.6 |
| 20260507093255 | 53 | 161 | 0.0 | 1.0 | 0.01 | 0.02 | 0.02 | 84 | 1012.5 |
| 20260507092754 | 53 | 278 | 1.0 | 5.0 | 0.01 | 0.02 | 0.02 | 84 | 1012.5 |
| 20260507092254 | 54 | 317 | 1.0 | 5.0 | 0.01 | 0.01 | 0.01 | 85 | 1012.4 |
| 20260507091754 | 54 | 301 | 1.0 | 6.0 | 0.01 | 0.01 | 0.01 | 85 | 1012.4 |
| 20260507085753 | 52 | 163 | 3.0 | 6.0 | 0.01 | 0.01 | 0.01 | 88 | 1012.4 |
| 20260507085254 | 52 | 158 | 3.0 | 6.0 | 0.01 | 0.01 | 0.01 | 88 | 1012.5 |
| 20260507084753 | 52 | 139 | 1.0 | 6.0 | 0.01 | 0.01 | 0.01 | 89 | 1012.4 |
| 20260507084253 | 52 | 146 | 1.0 | 5.0 | 0.01 | 0.01 | 0.01 | 88 | 1012.5 |
| 20260507083754 | 52 | 188 | 1.0 | 6.0 | 0.01 | 0.01 | 0.01 | 88 | 1012.4 |
| 20260507082755 | 52 | 199 | 0.0 | 3.0 | 0.01 | 0.01 | 0.01 | 86 | 1012.4 |
| 20260507081754 | 52 | 176 | 1.0 | 7.0 | 0.00 | 0.00 | 0.00 | 83 | 1012.5 |
| 20260507081254 | 53 | 132 | 1.0 | 3.0 | 0.00 | 0.00 | 0.00 | 81 | 1012.4 |